When you browse on this site, cookies collect data to enhance your experience and personalize the content and advertising you see.
Visit our Privacy Policy to learn more. By continuing to use the site, you agree to this use of cookies and data.
  • In Czech Republic
  • List of Countries
  • For 7 days
  • Water Temperature
  • Weather Map
  • Weather Widgets
  • user-avatar
    Login

    Hourly Weather Sankt Polten

    Today, 5 April, Sunday

    Time Temperature Precipitation Wind Pressure Humidity
    00:00 +5°C° 0 mm 1 mps 743 mmHg 82%
    01:00 +5°C° 0 mm 1 mps 744 mmHg 82%
    02:00 +4°C° 0 mm 1 mps 744 mmHg 81%
    03:00 +4°C° 0 mm 1 mps 743 mmHg 81%
    04:00 +4°C° 0 mm 1 mps 743 mmHg 81%
    05:00 +5°C° 0 mm 1 mps 744 mmHg 78%
    06:00 +4°C° 0 mm 2 mps 744 mmHg 74%
    07:00 +5°C° 0 mm 2 mps 744 mmHg 69%
    08:00 +8°C° 0 mm 3 mps 744 mmHg 61%
    09:00 +10°C° 0 mm 3 mps 744 mmHg 54%
    10:00 +12°C° 0 mm 4 mps 744 mmHg 47%
    11:00 +13°C° 0 mm 4 mps 744 mmHg 44%
    12:00 +14°C° 0 mm 5 mps 744 mmHg 41%
    13:00 +15°C° 0 mm 5 mps 743 mmHg 38%
    14:00 +15°C° 0 mm 5 mps 743 mmHg 40%
    15:00 +15°C° 0 mm 5 mps 742 mmHg 41%
    16:00 +14°C° 0 mm 5 mps 742 mmHg 43%
    17:00 +12°C° 0 mm 4 mps 742 mmHg 49%
    18:00 +11°C° 0 mm 4 mps 742 mmHg 56%
    19:00 +9°C° 0 mm 3 mps 743 mmHg 62%
    20:00 +8°C° 0 mm 3 mps 743 mmHg 65%
    21:00 +7°C° 0 mm 3 mps 743 mmHg 68%
    22:00 +7°C° 0 mm 3 mps 744 mmHg 71%
    23:00 +7°C° 0 mm 3 mps 744 mmHg 74%

    Tomorrow, 6 April, Monday

    Time Temperature Precipitation Wind Pressure Humidity
    00:00 +5°C° 0 mm 3 mps 744 mmHg 77%
    01:00 +5°C° 0 mm 3 mps 743 mmHg 80%
    02:00 +5°C° 0 mm 3 mps 743 mmHg 82%
    03:00 +5°C° 0 mm 3 mps 743 mmHg 84%
    04:00 +5°C° 0 mm 3 mps 743 mmHg 86%
    05:00 +6°C° 0 mm 2 mps 744 mmHg 82%
    06:00 +7°C° 0 mm 2 mps 744 mmHg 79%
    07:00 +8°C° 0 mm 2 mps 744 mmHg 76%
    08:00 +10°C° 0 mm 2 mps 744 mmHg 67%
    09:00 +14°C° 0 mm 2 mps 744 mmHg 57%
    10:00 +16°C° 0 mm 3 mps 745 mmHg 48%
    11:00 +17°C° 0 mm 3 mps 744 mmHg 45%
    12:00 +18°C° 0 mm 3 mps 744 mmHg 41%
    13:00 +19°C° 0 mm 4 mps 744 mmHg 38%
    14:00 +19°C° 0 mm 4 mps 744 mmHg 40%
    15:00 +18°C° 0 mm 4 mps 744 mmHg 42%
    16:00 +18°C° 0 mm 4 mps 744 mmHg 44%
    17:00 +15°C° 0 mm 4 mps 744 mmHg 50%
    18:00 +12°C° 0 mm 3 mps 744 mmHg 57%
    19:00 +10°C° 0 mm 3 mps 744 mmHg 63%
    20:00 +9°C° 0 mm 2 mps 745 mmHg 66%
    21:00 +8°C° 0 mm 2 mps 746 mmHg 68%
    22:00 +7°C° 0 mm 2 mps 746 mmHg 70%
    23:00 +7°C° 0 mm 2 mps 746 mmHg 71%

    Day after tomorrow, 7 April, Tuesday

    Time Temperature Precipitation Wind Pressure Humidity
    00:00 +6°C° 0 mm 2 mps 746 mmHg 72%
    01:00 +7°C° 0 mm 1 mps 746 mmHg 73%
    02:00 +6°C° 0 mm 1 mps 747 mmHg 72%
    03:00 +6°C° 0 mm 1 mps 747 mmHg 71%
    04:00 +5°C° 0 mm 1 mps 747 mmHg 70%
    05:00 +6°C° 0 mm 1 mps 747 mmHg 65%
    06:00 +7°C° 0 mm 1 mps 747 mmHg 60%
    07:00 +8°C° 0 mm 1 mps 747 mmHg 55%
    08:00 +11°C° 0 mm 1 mps 747 mmHg 48%
    09:00 +13°C° 0 mm 1 mps 748 mmHg 40%
    10:00 +16°C° 0 mm 1 mps 748 mmHg 33%
    11:00 +18°C° 0 mm 1 mps 747 mmHg 32%
    12:00 +18°C° 0 mm 2 mps 747 mmHg 30%
    13:00 +19°C° 0 mm 2 mps 747 mmHg 28%
    14:00 +19°C° 0 mm 2 mps 747 mmHg 29%
    15:00 +19°C° 0 mm 2 mps 746 mmHg 30%
    16:00 +19°C° 0 mm 2 mps 746 mmHg 32%
    17:00 +16°C° 0 mm 2 mps 746 mmHg 38%
    18:00 +13°C° 0 mm 2 mps 746 mmHg 44%
    19:00 +10°C° 0 mm 2 mps 746 mmHg 50%
    20:00 +8°C° 0 mm 2 mps 746 mmHg 52%
    21:00 +7°C° 0 mm 2 mps 746 mmHg 54%
    22:00 +6°C° 0 mm 2 mps 747 mmHg 55%
    23:00 +6°C° 0 mm 2 mps 747 mmHg 57%

    8 April, Wednesday

    Time Temperature Precipitation Wind Pressure Humidity
    00:00 +6°C° 0 mm 1 mps 747 mmHg 58%
    01:00 +5°C° 0 mm 1 mps 746 mmHg 60%
    02:00 +5°C° 0 mm 1 mps 746 mmHg 61%
    03:00 +5°C° 0 mm 1 mps 746 mmHg 62%
    04:00 +4°C° 0 mm 1 mps 746 mmHg 63%
    05:00 +5°C° 0 mm 1 mps 746 mmHg 61%
    06:00 +6°C° 0 mm 1 mps 746 mmHg 58%
    07:00 +7°C° 0 mm 1 mps 746 mmHg 55%
    08:00 +10°C° 0 mm 1 mps 746 mmHg 48%
    09:00 +13°C° 0 mm 1 mps 745 mmHg 41%
    10:00 +15°C° 0 mm 2 mps 745 mmHg 35%
    11:00 +17°C° 0 mm 2 mps 744 mmHg 33%
    12:00 +18°C° 0 mm 2 mps 744 mmHg 31%
    13:00 +20°C° 0 mm 2 mps 744 mmHg 29%
    14:00 +19°C° 0 mm 2 mps 743 mmHg 31%
    15:00 +19°C° 0 mm 2 mps 743 mmHg 32%
    16:00 +19°C° 0 mm 3 mps 743 mmHg 34%
    17:00 +17°C° 0 mm 2 mps 742 mmHg 41%
    18:00 +14°C° 0 mm 2 mps 742 mmHg 49%
    19:00 +10°C° 0 mm 2 mps 742 mmHg 56%
    20:00 +9°C° 0 mm 2 mps 742 mmHg 59%
    21:00 +8°C° 0 mm 2 mps 742 mmHg 61%
    22:00 +8°C° 0 mm 1 mps 743 mmHg 63%
    23:00 +8°C° 0 mm 1 mps 742 mmHg 65%

    9 April, Thursday

    Time Temperature Precipitation Wind Pressure Humidity
    00:00 +8°C° 0 mm 1 mps 742 mmHg 66%
    01:00 +7°C° 0 mm 1 mps 742 mmHg 68%
    02:00 +7°C° 0 mm 1 mps 742 mmHg 69%
    03:00 +7°C° 0 mm 1 mps 742 mmHg 69%
    04:00 +6°C° 0 mm 1 mps 741 mmHg 70%
    05:00 +8°C° 0 mm 1 mps 741 mmHg 67%
    06:00 +9°C° 0 mm 1 mps 741 mmHg 64%
    07:00 +10°C° 0 mm 1 mps 741 mmHg 62%
    08:00 +12°C° 0 mm 1 mps 741 mmHg 56%
    09:00 +15°C° 0 mm 1 mps 741 mmHg 50%
    10:00 +18°C° 0 mm 1 mps 741 mmHg 45%
    11:00 +18°C° 0 mm 2 mps 741 mmHg 43%
    12:00 +19°C° 0 mm 2 mps 741 mmHg 40%
    13:00 +20°C° 0 mm 2 mps 740 mmHg 38%
    14:00 +20°C° 0 mm 2 mps 740 mmHg 40%
    15:00 +20°C° 0 mm 2 mps 740 mmHg 41%
    16:00 +20°C° 0 mm 2 mps 739 mmHg 43%
    17:00 +18°C° 0 mm 2 mps 739 mmHg 52%
    18:00 +15°C° 0 mm 1 mps 739 mmHg 60%
    19:00 +13°C° 0 mm 1 mps 740 mmHg 69%
    20:00 +13°C° 0 mm 1 mps 740 mmHg 71%
    21:00 +12°C° 0 mm 1 mps 740 mmHg 72%
    22:00 +12°C° 0 mm 1 mps 741 mmHg 73%
    23:00 +11°C° 0 mm 1 mps 741 mmHg 73%

    10 April, Friday

    Time Temperature Precipitation Wind Pressure Humidity
    00:00 +11°C° 0 mm 1 mps 741 mmHg 74%
    01:00 +11°C° 0 mm 1 mps 741 mmHg 75%
    02:00 +11°C° 0 mm 1 mps 741 mmHg 76%
    03:00 +10°C° 0 mm 1 mps 741 mmHg 77%
    04:00 +10°C° 0 mm 1 mps 741 mmHg 78%
    05:00 +11°C° 0 mm 1 mps 741 mmHg 77%
    06:00 +12°C° 0 mm 1 mps 741 mmHg 75%
    07:00 +11°C° 0 mm 0 mps 742 mmHg 74%
    08:00 +14°C° 0 mm 1 mps 742 mmHg 67%
    09:00 +16°C° 0 mm 1 mps 742 mmHg 61%
    10:00 +19°C° 0 mm 1 mps 741 mmHg 54%
    11:00 +20°C° 0 mm 1 mps 741 mmHg 52%
    12:00 +20°C° 0 mm 1 mps 741 mmHg 49%
    13:00 +21°C° 0 mm 1 mps 741 mmHg 47%
    14:00 +20°C° 0 mm 1 mps 741 mmHg 48%
    15:00 +19°C° 0 mm 2 mps 740 mmHg 49%
    16:00 +19°C° 0 mm 2 mps 740 mmHg 51%
    17:00 +18°C° 0 mm 1 mps 740 mmHg 59%
    18:00 +15°C° 0 mm 1 mps 740 mmHg 68%
    19:00 +13°C° 0 mm 1 mps 740 mmHg 77%
    20:00 +12°C° 0 mm 1 mps 740 mmHg 79%
    21:00 +11°C° 0 mm 1 mps 740 mmHg 81%
    22:00 +11°C° 0 mm 1 mps 740 mmHg 82%
    23:00 +10°C° 0 mm 1 mps 740 mmHg 84%
    Show more